Location: ???????????
(55.5758°N, 38.4970°E)
Time: 16:51:48
(UTC+00:00)

USA 238 DEB - Pass Details

Date: 15 November 2025
Orbit: 886 x 1325 km, 63.4° (Epoch: 24 November)

Event Time Altitude Azimuth Distance (km) Brightness Sun altitude
Exits shadow 03:50:54 10° 305° (NW) 2,895 5.4 -9.7°
Maximum altitude 03:57:47 62° 26° (NNE) 1,299 4.2 -8.8°
Drops below altitude 10° 04:05:29 10° 107° (ESE) 3,224 8.0 -7.8°
Sets 04:08:26 0° 111° (ESE) 4,237 9.5 -7.4°
